カタログに戻る

OAO 1

運用中科学LEO
NORAD 2142·PAYLOAD·🇺🇸 United States

打ち上げ Apr 8, 1966 から Cape Canaveral Space Force Station

Loading…

次のパス (今後24時間)

TLE

最新Source: Space-Track

元期: Sep 14, 2026, 02:57 UTC

1 02142U 66031A   26257.12336305  .00000032  00000-0  17809-4 0  9994
2 02142  35.0448 204.0524 0007468 272.7062  87.2770 14.34708861163860

AllMySatでOAO 1をリアルタイム追跡

Download on the App Store